Weather observations for the past three days for
Faaa International Airport
| Date | Time (-10) | Wind (kph) | Vis. (km) | Weather | Sky Cond. | Temperature (ºC) | Relative Humidity | Wind Chill (°C) | Heat Index (°C) | Pressure | Precipitation (cm) | ||||||
|---|---|---|---|---|---|---|---|---|---|---|---|---|---|---|---|---|---|
| Air | Dwpt | 6 hour | altimeter (cm) | sea level (mb) | 1 hr | 3 hr | 6 hr | ||||||||||
| Max. | Min. | ||||||||||||||||
| 05 | 19:00 | NW 7 | 0.00 | A Few Clouds | FEW049 | 28 | 24 | 79% | 32 | 0 | 0.0 | ||||||
| 05 | 18:30 | NW 7 | 0.00 | Mostly Cloudy | BKN045 | 29 | 23 | 70% | 33 | 0 | 0.0 | ||||||
| 05 | 18:00 | W 9 | 0.00 | Partly Cloudy | SCT044 SCT052 | 29 | 24 | 74% | 34 | 0 | 0.0 | ||||||
| 05 | 17:30 | W 13 | 0.00 | A Few Clouds | FEW046 | 29 | 24 | 74% | 34 | 0 | 0.0 | ||||||
| 05 | 17:00 | SW 13 | 0.00 | Partly Cloudy | FEW047 SCT054 | 30 | 24 | 70% | 35 | 0 | 0.0 | ||||||
| 05 | 16:30 | W 9 | 0.00 | Mostly Cloudy | SCT046 BKN052 | 31 | 24 | 66% | 37 | 0 | 0.0 | ||||||
| 05 | 16:00 | W 9 | 0.00 | Partly Cloudy | SCT046 | 31 | 24 | 66% | 37 | 0 | 0.0 | ||||||
| 05 | 15:30 | NW 15 | 0.00 | Mostly Cloudy | BKN044 | 30 | 24 | 70% | 35 | 0 | 0.0 | ||||||
| 05 | 15:00 | NW 24 | 0.00 | A Few Clouds | FEW044 | 30 | 24 | 70% | 35 | 0 | 0.0 | ||||||
| 05 | 14:30 | NW 17 | 0.00 | A Few Clouds | FEW022 | 31 | 24 | 66% | 37 | 0 | 0.0 | ||||||
| 05 | 14:00 | Vrbl 6 | 0.00 | NULL | NULL | 31 | 23 | 62% | 35 | 0 | 0.0 | ||||||
| 05 | 13:30 | NW 7 | 0.00 | A Few Clouds | FEW049 | 31 | 23 | 62% | 35 | 0 | 0.0 | ||||||
| 05 | 13:00 | Vrbl 4 | 0.00 | A Few Clouds | FEW048 | 31 | 23 | 62% | 35 | 0 | 0.0 | ||||||
| 05 | 12:30 | W 7 | 0.00 | A Few Clouds | FEW038 | 30 | 23 | 66% | 34 | 0 | 0.0 | ||||||
| 05 | 12:00 | SW 13 | 0.00 | Mostly Cloudy | SCT026 SCT034 BKN045 | 30 | 24 | 70% | 35 | 0 | 0.0 | ||||||
| 05 | 11:30 | SW 13 | 0.00 | Mostly Cloudy | FEW026 BKN044 | 30 | 24 | 70% | 35 | 0 | 0.0 | ||||||
| 05 | 11:00 | SW 15 | 0.00 | A Few Clouds | FEW033 | 29 | 23 | 70% | 33 | 0 | 0.0 | ||||||
| 05 | 10:30 | SW 13 | 0.00 | Partly Cloudy | SCT026 | 30 | 23 | 66% | 34 | 0 | 0.0 | ||||||
| 05 | 10:00 | Vrbl 4 | 0.00 | A Few Clouds | FEW023 | 30 | 23 | 66% | 34 | 0 | 0.0 | ||||||
| 05 | 09:30 | S 15 | 0.00 | NULL | NULL | 30 | 23 | 66% | 34 | 0 | 0.0 | ||||||
| 05 | 09:00 | S 15 | 0.00 | NULL | NULL | 29 | 23 | 70% | 33 | 0 | 0.0 | ||||||
| 05 | 08:30 | S 15 | 0.00 | NULL | NULL | 29 | 23 | 70% | 33 | 0 | 0.0 | ||||||
| 05 | 08:00 | S 9 | 0.00 | NULL | NULL | 28 | 22 | 70% | 31 | 0 | 0.0 | ||||||
| 05 | 07:30 | Calm | 0.00 | NULL | NULL | 28 | 22 | 70% | 31 | 0 | 0.0 | ||||||
| 05 | 07:00 | E 6 | 0.00 | NULL | NULL | 26 | 22 | 79% | 28 | 0 | 0.0 | ||||||
| 05 | 06:30 | Vrbl 4 | 0.00 | NULL | NULL | 25 | 21 | 79% | 26 | 0 | 0.0 | ||||||
| 05 | 06:00 | SE 7 | 0.00 | NULL | NULL | 25 | 21 | 79% | 26 | 0 | 0.0 | ||||||
| 05 | 05:30 | Vrbl 4 | 0.00 | NULL | NULL | 25 | 21 | 79% | 26 | 0 | 0.0 | ||||||
| 05 | 05:00 | Vrbl 4 | 0.00 | NULL | NULL | 25 | 21 | 79% | 26 | 0 | 0.0 | ||||||
| 05 | 04:30 | SE 7 | 0.00 | NULL | NULL | 26 | 22 | 79% | 28 | 0 | 0.0 | ||||||
| 05 | 04:00 | SE 9 | 0.00 | NULL | NULL | 26 | 22 | 79% | 28 | 0 | 0.0 | ||||||
| 05 | 03:30 | SE 7 | 0.00 | NULL | NULL | 25 | 22 | 83% | 26 | 0 | 0.0 | ||||||
| 05 | 03:00 | S 4 | 0.00 | NULL | NULL | 25 | 21 | 79% | 26 | 0 | 0.0 | ||||||
| 05 | 02:30 | E 4 | 0.00 | NULL | NULL | 25 | 22 | 83% | 26 | 0 | 0.0 | ||||||
| 05 | 02:00 | SE 4 | 0.00 | NULL | NULL | 26 | 22 | 79% | 28 | 0 | 0.0 | ||||||
| 05 | 01:30 | E 6 | 0.00 | NULL | NULL | 26 | 22 | 79% | 28 | 0 | 0.0 | ||||||
| 05 | 01:00 | E 6 | 0.00 | NULL | NULL | 26 | 22 | 79% | 28 | 0 | 0.0 | ||||||
| 05 | 00:30 | E 4 | 0.00 | A Few Clouds | FEW024 | 26 | 22 | 79% | 28 | 0 | 0.0 | ||||||
| 05 | 00:00 | E 4 | 0.00 | Partly Cloudy | SCT026 SCT035 | 26 | 22 | 79% | 28 | 0 | 0.0 | ||||||
| 04 | 23:30 | E 6 | 0.00 | Partly Cloudy | FEW027 SCT032 | 26 | 22 | 79% | 28 | 0 | 0.0 | ||||||
| 04 | 23:00 | SE 4 | 0.00 | A Few Clouds | FEW029 | 27 | 23 | 79% | 30 | 0 | 0.0 | ||||||
| 04 | 22:30 | SE 6 | 0.00 | A Few Clouds | FEW028 | 27 | 23 | 79% | 30 | 0 | 0.0 | ||||||
| 04 | 22:00 | Vrbl 4 | 0.00 | A Few Clouds | FEW030 | 27 | 23 | 79% | 30 | 0 | 0.0 | ||||||
| 04 | 21:30 | S 7 | 0.00 | A Few Clouds | FEW025 | 27 | 22 | 74% | 29 | 0 | 0.0 | ||||||
| 04 | 21:00 | SE 13 | 0.00 | NULL | NULL | 28 | 22 | 70% | 31 | 0 | 0.0 | ||||||
| 04 | 20:30 | E 4 | 0.00 | NULL | NULL | 27 | 21 | 70% | 29 | 0 | 0.0 | ||||||
| 04 | 20:00 | E 4 | 0.00 | NULL | NULL | 27 | 22 | 74% | 29 | 0 | 0.0 | ||||||
| 04 | 19:30 | E 6 | 0.00 | NULL | NULL | 27 | 22 | 74% | 29 | 0 | 0.0 | ||||||
| 04 | 19:00 | NE 11 | 0.00 | NULL | NULL | 28 | 22 | 70% | 31 | 0 | 0.0 | ||||||
| 04 | 18:30 | NE 9 | 0.00 | NULL | NULL | 28 | 22 | 70% | 31 | 0 | 0.0 | ||||||
| 04 | 18:00 | NE 17 | 0.00 | NULL | NULL | 28 | 22 | 70% | 31 | 0 | 0.0 | ||||||
| 04 | 17:30 | NE 17 | 0.00 | NULL | NULL | 29 | 22 | 66% | 32 | 0 | 0.0 | ||||||
| 04 | 17:00 | NE 15 | 0.00 | NULL | NULL | 29 | 23 | 70% | 33 | 0 | 0.0 | ||||||
| 04 | 16:30 | NE 15 | 0.00 | NULL | NULL | 29 | 23 | 70% | 33 | 0 | 0.0 | ||||||
| 04 | 16:00 | NE 17 | 0.00 | A Few Clouds | FEW025 | 29 | 24 | 74% | 34 | 0 | 0.0 | ||||||
| 04 | 15:30 | NE 13 | 0.00 | Mostly Cloudy | SCT028 BKN033 BKN046 | 29 | 23 | 70% | 33 | 0 | 0.0 | ||||||
| 04 | 15:00 | NE 13 | 0.00 | Mostly Cloudy | FEW023 SCT037 BKN096 | 30 | 23 | 66% | 34 | 0 | 0.0 | ||||||
| 04 | 14:30 | NE 11 | 0.00 | Mostly Cloudy | FEW027 BKN096 | 30 | 24 | 70% | 35 | 0 | 0.0 | ||||||
| 04 | 14:00 | N 9 | 0.00 | A Few Clouds | FEW023 | 30 | 24 | 70% | 35 | 0 | 0.0 | ||||||
| 04 | 13:30 | N 9 | 0.00 | A Few Clouds | FEW023 | 30 | 24 | 70% | 35 | 0 | 0.0 | ||||||
| 04 | 13:00 | N 9 | 0.00 | A Few Clouds | FEW023 | 31 | 25 | 70% | 38 | 0 | 0.0 | ||||||
| 04 | 12:30 | N 11 | 0.00 | A Few Clouds | FEW023 | 31 | 25 | 70% | 38 | 0 | 0.0 | ||||||
| 04 | 12:00 | NE 13 | 0.00 | A Few Clouds | FEW042 | 30 | 24 | 70% | 35 | 0 | 0.0 | ||||||
| 04 | 11:30 | NE 17 | 0.00 | NULL | NULL | 31 | 25 | 70% | 38 | 0 | 0.0 | ||||||
| 04 | 11:00 | NE 19 | 0.00 | NULL | NULL | 31 | 24 | 66% | 37 | 0 | 0.0 | ||||||
| 04 | 10:30 | NE 17 | 0.00 | NULL | NULL | 30 | 23 | 66% | 34 | 0 | 0.0 | ||||||
| 04 | 10:00 | NE 15 | 0.00 | NULL | NULL | 30 | 24 | 70% | 35 | 0 | 0.0 | ||||||
| 04 | 09:30 | NE 13 | 0.00 | NULL | NULL | 30 | 24 | 70% | 35 | 0 | 0.0 | ||||||
| 04 | 09:00 | NE 13 | 0.00 | NULL | NULL | 30 | 24 | 70% | 35 | 0 | 0.0 | ||||||
| 04 | 08:30 | NE 9 | 0.00 | NULL | NULL | 30 | 23 | 66% | 34 | 0 | 0.0 | ||||||
| 04 | 08:00 | Vrbl 6 | 0.00 | NULL | NULL | 30 | 22 | 62% | 33 | 0 | 0.0 | ||||||
| 04 | 07:30 | Vrbl 2 | 0.00 | NULL | NULL | 29 | 23 | 70% | 33 | 0 | 0.0 | ||||||
| 04 | 07:00 | SE 4 | 0.00 | NULL | NULL | 27 | 23 | 79% | 30 | 0 | 0.0 | ||||||
| 04 | 06:30 | S 2 | 0.00 | NULL | NULL | 25 | 22 | 83% | 26 | 0 | 0.0 | ||||||
| 04 | 06:00 | Vrbl 4 | 0.00 | NULL | NULL | 26 | 22 | 79% | 28 | 0 | 0.0 | ||||||
| 04 | 05:30 | E 6 | 0.00 | NULL | NULL | 25 | 22 | 83% | 26 | 0 | 0.0 | ||||||
| 04 | 05:00 | SE 6 | 0.00 | NULL | NULL | 25 | 21 | 79% | 26 | 0 | 0.0 | ||||||
| 04 | 04:30 | E 6 | 0.00 | NULL | NULL | 26 | 21 | 74% | 27 | 0 | 0.0 | ||||||
| 04 | 04:00 | E 7 | 0.00 | NULL | NULL | 26 | 21 | 74% | 27 | 0 | 0.0 | ||||||
| 04 | 03:30 | NE 7 | 0.00 | NULL | NULL | 26 | 21 | 74% | 27 | 0 | 0.0 | ||||||
| 04 | 03:00 | E 6 | 0.00 | NULL | NULL | 26 | 21 | 74% | 27 | 0 | 0.0 | ||||||
| 04 | 02:30 | E 6 | 0.00 | A Few Clouds | FEW023 | 26 | 21 | 74% | 27 | 0 | 0.0 | ||||||
| 04 | 02:00 | E 7 | 0.00 | NULL | NULL | 27 | 21 | 70% | 29 | 0 | 0.0 | ||||||
| 04 | 01:30 | E 7 | 0.00 | A Few Clouds | FEW064 | 27 | 21 | 70% | 29 | 0 | 0.0 | ||||||
| 04 | 01:00 | E 9 | 0.00 | Mostly Cloudy | FEW023 BKN260 | 27 | 21 | 70% | 29 | 0 | 0.0 | ||||||
| 04 | 00:30 | E 11 | 0.00 | Mostly Cloudy | FEW023 BKN260 | 26 | 22 | 79% | 28 | 0 | 0.0 | ||||||
| 04 | 00:00 | Vrbl 2 | 0.00 | Mostly Cloudy | FEW023 BKN260 | 26 | 21 | 74% | 27 | 0 | 0.0 | ||||||
| 03 | 23:30 | Vrbl 4 | 0.00 | Mostly Cloudy | FEW023 BKN260 | 26 | 21 | 74% | 27 | 0 | 0.0 | ||||||
| 03 | 23:00 | Calm | 0.00 | Mostly Cloudy | FEW023 BKN260 | 26 | 21 | 74% | 27 | 0 | 0.0 | ||||||
| 03 | 22:30 | Vrbl 4 | 0.00 | NULL | NULL | 26 | 21 | 74% | 27 | 0 | 0.0 | ||||||
| 03 | 22:00 | E 6 | 0.00 | Mostly Cloudy | FEW023 BKN260 | 26 | 21 | 74% | 27 | 0 | 0.0 | ||||||
| 03 | 21:30 | Vrbl 2 | 0.00 | NULL | NULL | 26 | 21 | 74% | 27 | 0 | 0.0 | ||||||
| 03 | 21:00 | E 6 | 0.00 | Mostly Cloudy | FEW023 BKN260 | 26 | 21 | 74% | 27 | 0 | 0.0 | ||||||
| 03 | 20:30 | Vrbl 4 | 0.00 | NULL | NULL | 27 | 21 | 70% | 29 | 0 | 0.0 | ||||||
| 03 | 20:00 | E 6 | 0.00 | NULL | NULL | 27 | 21 | 70% | 29 | 0 | 0.0 | ||||||
| 03 | 19:30 | Vrbl 2 | 0.00 | NULL | NULL | 27 | 21 | 70% | 29 | 0 | 0.0 | ||||||
| 03 | 19:00 | E 4 | 0.00 | NULL | NULL | 27 | 21 | 70% | 29 | 0 | 0.0 | ||||||
| 03 | 18:30 | NE 7 | 0.00 | NULL | NULL | 28 | 21 | 66% | 30 | 0 | 0.0 | ||||||
| 03 | 18:00 | NE 13 | 0.00 | NULL | NULL | 28 | 22 | 70% | 31 | 0 | 0.0 | ||||||
| 03 | 17:30 | NE 13 | 0.00 | NULL | NULL | 29 | 22 | 66% | 32 | 0 | 0.0 | ||||||
| 03 | 17:00 | NE 17 | 0.00 | NULL | NULL | 29 | 23 | 70% | 33 | 0 | 0.0 | ||||||
| 03 | 16:30 | NE 17 | 0.00 | NULL | NULL | 29 | 23 | 70% | 33 | 0 | 0.0 | ||||||
| 03 | 16:00 | NE 17 | 0.00 | NULL | NULL | 29 | 23 | 70% | 33 | 0 | 0.0 | ||||||
| 03 | 15:30 | NE 19 | 0.00 | Mostly Cloudy | FEW020 BKN260 | 30 | 22 | 62% | 33 | 0 | 0.0 | ||||||
| 03 | 15:00 | NE 28 G 46 | 0.00 | NULL | NULL | 30 | 24 | 70% | 35 | 0 | 0.0 | ||||||
| 03 | 14:30 | NE 28 G 46 | 0.00 | NULL | NULL | 30 | 23 | 66% | 34 | 0 | 0.0 | ||||||
| 03 | 14:00 | NE 28 G 46 | 0.00 | NULL | NULL | 31 | 24 | 66% | 37 | 0 | 0.0 | ||||||
| 03 | 13:30 | NE 28 G 46 | 0.00 | NULL | NULL | 31 | 24 | 66% | 37 | 0 | 0.0 | ||||||
| 03 | 13:00 | NE 24 | 0.00 | NULL | NULL | 31 | 23 | 62% | 35 | 0 | 0.0 | ||||||
| 03 | 12:30 | NE 20 | 0.00 | NULL | NULL | 31 | 23 | 62% | 35 | 0 | 0.0 | ||||||
| 03 | 12:00 | NE 20 | 0.00 | NULL | NULL | 31 | 22 | 59% | 35 | 0 | 0.0 | ||||||
| 03 | 11:30 | NE 20 | 0.00 | NULL | NULL | 31 | 24 | 66% | 37 | 0 | 0.0 | ||||||
| 03 | 11:00 | NE 24 | 0.00 | NULL | NULL | 30 | 24 | 70% | 35 | 0 | 0.0 | ||||||
| 03 | 10:30 | NE 22 | 0.00 | Mostly Cloudy | FEW023 BKN100 | 31 | 23 | 62% | 35 | 0 | 0.0 | ||||||
| 03 | 10:00 | NE 20 | 0.00 | Mostly Cloudy | FEW023 BKN100 | 30 | 24 | 70% | 35 | 0 | 0.0 | ||||||
| 03 | 09:30 | NE 17 | 0.00 | NULL | NULL | 29 | 23 | 70% | 33 | 0 | 0.0 | ||||||
| 03 | 09:00 | E 15 | 0.00 | NULL | NULL | 29 | 22 | 66% | 32 | 0 | 0.0 | ||||||
| 03 | 08:30 | NE 17 | 0.00 | NULL | NULL | 29 | 24 | 74% | 34 | 0 | 0.0 | ||||||
| 03 | 08:00 | NE 13 | 0.00 | Mostly Cloudy | FEW023 BKN100 | 28 | 23 | 74% | 31 | 0 | 0.0 | ||||||
| 03 | 07:30 | E 9 | 0.00 | Mostly Cloudy | FEW023 BKN100 | 28 | 21 | 66% | 30 | 0 | 0.0 | ||||||
| 03 | 07:00 | E 7 | 0.00 | Partly Cloudy | FEW023 SCT100 | 27 | 21 | 70% | 29 | 0 | 0.0 | ||||||
| 03 | 06:30 | NE 11 | 0.00 | NULL | NULL | 27 | 22 | 74% | 29 | 0 | 0.0 | ||||||
| 03 | 06:00 | E 7 | 0.00 | Partly Cloudy | FEW023 SCT100 | 26 | 21 | 74% | 27 | 0 | 0.0 | ||||||
| 03 | 05:30 | Vrbl 4 | 0.00 | Partly Cloudy | FEW023 SCT100 | 27 | 21 | 70% | 29 | 0 | 0.0 | ||||||
| 03 | 05:00 | E 9 | 0.00 | Partly Cloudy | FEW023 SCT100 | 27 | 20 | 66% | 29 | 0 | 0.0 | ||||||
| 03 | 04:30 | Vrbl 4 | 0.00 | Partly Cloudy | FEW023 SCT100 | 27 | 20 | 66% | 29 | 0 | 0.0 | ||||||
| 03 | 04:00 | E 9 | 0.00 | Partly Cloudy | FEW023 SCT100 | 27 | 21 | 70% | 29 | 0 | 0.0 | ||||||
| 03 | 03:30 | NE 13 | 0.00 | Partly Cloudy | FEW023 SCT100 | 26 | 22 | 79% | 28 | 0 | 0.0 | ||||||
| 03 | 03:00 | E 6 | 0.00 | Partly Cloudy | FEW023 SCT100 | 26 | 21 | 74% | 27 | 0 | 0.0 | ||||||
| 03 | 02:30 | NE 19 | 0.00 | Partly Cloudy | FEW023 SCT100 | 27 | 21 | 70% | 29 | 0 | 0.0 | ||||||
| 03 | 02:00 | E 9 | 0.00 | Partly Cloudy | FEW023 SCT100 | 27 | 21 | 70% | 29 | 0 | 0.0 | ||||||
| 03 | 01:30 | NE 20 | 0.00 | Mostly Cloudy | FEW062 BKN100 | 28 | 23 | 74% | 31 | 0 | 0.0 | ||||||
| 03 | 01:00 | NE 19 | 0.00 | NULL | NULL | 28 | 23 | 74% | 31 | 0 | 0.0 | ||||||
| 03 | 00:30 | NE 20 | 0.00 | A Few Clouds | FEW023 | 28 | 22 | 70% | 31 | 0 | 0.0 | ||||||
| 03 | 00:00 | NE 24 | 0.00 | NULL | NULL | 28 | 22 | 70% | 31 | 0 | 0.0 | ||||||
| 02 | 23:30 | NE 15 | 0.00 | A Few Clouds | FEW062 | 27 | 21 | 70% | 29 | 0 | 0.0 | ||||||
| 02 | 23:00 | NE 13 | 0.00 | A Few Clouds | FEW023 | 27 | 21 | 70% | 29 | 0 | 0.0 | ||||||
| 02 | 22:30 | NE 9 | 0.00 | A Few Clouds | FEW023 | 27 | 20 | 66% | 29 | 0 | 0.0 | ||||||
| 02 | 22:00 | NE 17 | 0.00 | A Few Clouds | FEW023 | 28 | 20 | 62% | 30 | 0 | 0.0 | ||||||
| 02 | 21:30 | E 17 | 0.00 | NULL | NULL | 28 | 20 | 62% | 30 | 0 | 0.0 | ||||||
| 02 | 21:00 | NE 22 | 0.00 | NULL | NULL | 28 | 22 | 70% | 31 | 0 | 0.0 | ||||||
| 02 | 20:30 | E 17 | 0.00 | NULL | NULL | 28 | 21 | 66% | 30 | 0 | 0.0 | ||||||
| 02 | 20:00 | NE 13 | 0.00 | NULL | NULL | 27 | 21 | 70% | 29 | 0 | 0.0 | ||||||
| Date | Time (-10) | Wind (kph) | Vis. (km) | Weather | Sky Cond. | Air | Dwpt | Max. | Min. | Relative Humidity | Wind Chill (°C) | Heat Index (°C) | altimeter (cm) | sea level (mb) | 1 hr | 3 hr | 6 hr |
| 6 hour | |||||||||||||||||
| Temperature (ºC) | Pressure | Precipitation (cm) | |||||||||||||||